Home > Weather > Scottsdale > Past weeks

Flag for USA Past Weather in Scottsdale, Arizona, USA — Yesterday and Last 2 Weeks

Now
65 °F

Sunny.


Feels Like: 65 °F
Forecast: 60 / 80 °F
Wind: 5 mph from Southeast

Location: Scottsdale Airport

Current Time: May 26, 2016 at 7:41:09 AM

Latest Report: May 26, 2016 at 6:53 AM


Visibility: 10 mi

Pressure: 29.89 "Hg

Humidity: 32%

Dew Point: 34 °F

Location of ScottsdaleLocation

Past Weather in Scottsdale — Graph

°F

Scottsdale Temperature Yesterday

Maximum temperature yesterday: 88 °F (at 4:53 PM)
Minimum temperature yesterday: 61 °F (at 4:53 AM)
Average temperature yesterday: 76 °F

High & Low Weather Summary for the Past Weeks

 TemperatureHumidityPressure
High100 °F (May 13, 4:53 PM)56% (May 19, 5:53 AM)29.95 "Hg (May 19, 5:53 AM)
Low61 °F (May 25, 4:53 AM)5% (May 12, 2:53 PM)29.61 "Hg (May 20, 4:53 PM)
Average80 °F20%29.79 "Hg
* Reported May 11 5:53 AM — May 26 5:53 AM, Scottsdale, Weather by CustomWeather, © 2016

Note: Actual official high and low records may vary slightly from our data, if they occured in-between our weather recording intervals... More about our weather records

Advertising

Scottsdale Weather History for the Previous 24 Hours

Scroll right to see more
 ConditionsComfort  
Time TempWeatherWind HumidityBarometerVisibility
5:53 AM
Thu, May 26
63 °FSunny.5 mph35%29.88 "Hg10 mi
4:53 AM64 °FClear.3 mph28%29.86 "Hg10 mi
3:53 AM65 °FClear.No wind24%29.85 "Hg10 mi
2:53 AM66 °FClear.5 mph23%29.85 "Hg10 mi
1:53 AM70 °FClear.6 mph20%29.84 "Hg10 mi
12:53 AM72 °FClear.5 mph17%29.84 "Hg10 mi
11:53 PM
Wed, May 25
73 °FClear.No wind16%29.84 "Hg10 mi
10:53 PM74 °FClear.7 mph14%29.83 "Hg10 mi
9:53 PM77 °FClear.8 mph13%29.83 "Hg10 mi
8:53 PM79 °FClear.10 mph15%29.80 "Hg10 mi
7:53 PM81 °FClear.12 mph17%29.78 "Hg10 mi
6:53 PM84 °FSunny.14 mph8%29.77 "Hg10 mi
5:53 PM86 °FSunny.17 mph9%29.77 "Hg10 mi
4:53 PM88 °FSunny.14 mph10%29.78 "Hg10 mi
3:53 PM87 °FPassing clouds.8 mph12%29.80 "Hg10 mi
2:53 PM85 °FSunny.5 mph14%29.83 "Hg10 mi
1:53 PM85 °FSunny.10 mph13%29.85 "Hg10 mi
12:53 PM85 °FSunny.6 mph12%29.88 "Hg10 mi
11:53 AM83 °FSunny.10 mph12%29.90 "Hg10 mi
10:53 AM80 °FSunny.3 mph15%29.91 "Hg10 mi
9:53 AM78 °FSunny.5 mph13%29.91 "Hg10 mi
8:53 AM74 °FSunny.No wind16%29.92 "Hg10 mi
7:53 AM71 °FSunny.5 mph20%29.92 "Hg10 mi
Weather by CustomWeather, © 2016

See weather overviewHow to use our weather pages